Flag for U.S.A. Weather past 2 weeks in Barnstable, Massachusetts, U.S.A.

Now
74 °F

Fog.


Feels Like: 72 °F
Forecast: 71 / 78 °F
Wind: 13 mph from South

Location: Barnstable Municipal-Boardman Airport

Current Time: Jul 28, 2014 at 10:48:20 AM

Latest Report: Jul 28, 2014 at 9:56 AM


Visibility: 5 mi

Pressure: 29.58 "Hg

Humidity: 91%

Dew point: 71 °F

Location of BarnstableLocation

Historic Weather in Barnstable — Graph

°F

Barnstable temperature yesterday

Maximum temperature yesterday: 76 °F (at 10:56 AM)
Minimum temperature yesterday: 70 °F (at 12:56 AM)
Average temperature yesterday: 73 °F

Past Weeks' High & Low Weather Summary

 TemperatureHumidityPressure
High80 °F (Jul 23, 11:56 AM)97% (Jul 15, 2:56 AM)30.26 "Hg (Jul 15, 2:56 AM)
Low57 °F (Jul 19, 3:56 AM)37% (Jul 25, 2:56 PM)29.60 "Hg (Jul 28, 8:56 AM)
Average71 °F81%29.97 "Hg
* Reported Jul 13 8:56 AM — Jul 28 8:56 AM, Barnstable, Weather by CustomWeather, © 2014

Note: Actual official high and low records may vary slightly from our data, if they occured in-between our weather recording intervals... More about our weather records

Advertising

Barnstable weather history for previous 24 hours

 ConditionsComfort  
Time TempWeatherWind HumidityBarometerVisibility
8:56 AM
Jul 28
74 °FLight rain. Fog.13 mph94%29.60 "Hg3 mi
7:56 AM72 °FLight rain. Fog.8 mph97%29.62 "Hg3 mi
6:56 AM73 °FFog.6 mph94%29.63 "Hg3 mi
5:56 AM73 °FFog.7 mph94%29.65 "Hg3 mi
4:56 AM72 °FFog.9 mph93%29.66 "Hg1 mi
4:01 AM71 °FFog.7 mph96%29.67 "Hg1 mi
2:56 AM72 °FClear.5 mph91%29.67 "Hg7 mi
1:56 AM72 °FClear.9 mph91%29.68 "Hg8 mi
12:56 AM72 °FPassing clouds.7 mph93%29.70 "Hg7 mi
11:56 PM
Jul 27
72 °FFog.12 mph93%29.71 "Hg5 mi
10:56 PM72 °FFog.9 mph93%29.72 "Hg5 mi
9:56 PM73 °FFog.10 mph90%29.72 "Hg6 mi
8:56 PM73 °FMostly cloudy.13 mph90%29.73 "Hg8 mi
7:56 PM73 °FOvercast.10 mph88%29.71 "Hg8 mi
6:56 PM73 °FOvercast.14 mph88%29.72 "Hg9 mi
5:56 PM74 °FMostly cloudy.14 mph85%29.72 "Hg10 mi
4:56 PM75 °FCloudy.14 mph76%29.75 "Hg10 mi
3:56 PM74 °FCloudy.10 mph79%29.75 "Hg10 mi
2:56 PM74 °FLight rain. Broken clouds.14 mph82%29.77 "Hg10 mi
1:56 PM73 °FLight rain. Fog.14 mph90%29.80 "Hg4 mi
12:56 PM74 °FPartly sunny.14 mph82%29.81 "Hg10 mi
11:56 AM75 °FPartly sunny.16 mph82%29.82 "Hg10 mi
10:56 AM76 °FPassing clouds.17 mph77%29.84 "Hg10 mi
Weather by CustomWeather, © 2014

See weather overviewHow to use our weather pages